Flag for Germany Weather past 2 weeks in Konstanz, Baden-Württemberg, Germany

Now
63 °F

Clear.


Feels Like: 63 °F
Forecast: 59 / 75 °F
Wind: 1 mph from Northwest

Location: Konstanz

Current Time: Aug 2, 2014 at 4:34:50 AM

Latest Report: Aug 2, 2014 at 4:00 AM


Visibility: 5 mi

Pressure: 29.80 "Hg

Humidity: 95%

Dew point: 61 °F

Location of KonstanzLocation

Historic Weather in Konstanz — Graph

°F

Konstanz temperature yesterday

Maximum temperature yesterday: 76 °F (at 6:00 PM)
Minimum temperature yesterday: 58 °F (at 6:00 AM)
Average temperature yesterday: 67 °F

Past Weeks' High & Low Weather Summary

 TemperatureHumidityPressure
High91 °F (Jul 19, 6:00 PM)99% (Jul 23, 4:00 AM)30.13 "Hg (Jul 23, 4:00 AM)
Low58 °F (Aug 1, 6:00 AM)14% (Jul 18, 5:00 PM)29.70 "Hg (Jul 28, 7:00 PM)
Average68 °F75%29.89 "Hg
* Reported Jul 18 3:00 AM — Aug 2 3:00 AM, Konstanz, Weather by CustomWeather, © 2014

Note: Actual official high and low records may vary slightly from our data, if they occured in-between our weather recording intervals... More about our weather records

Advertising

Konstanz weather history for previous 24 hours

 ConditionsComfort  
Time TempWeatherWind HumidityBarometerVisibility
3:00 AM
Aug 2
63 °FClear.2 mph92%29.79 "Hg6 mi
2:00 AM63 °FClear.1 mph92%29.80 "Hg5 mi
1:00 AM64 °FClear.2 mph88%29.80 "Hg7 mi
12:00 AM66 °FClear.1 mph85%29.81 "Hg16 mi
11:00 PM
Aug 1
67 °FClear.1 mph86%29.80 "Hg13 mi
10:00 PM68 °FClear.2 mph82%29.79 "Hg13 mi
9:00 PM71 °FClear.1 mph68%29.78 "Hg22 mi
8:00 PM76 °FSunny.1 mph58%29.78 "Hg22 mi
7:00 PM76 °FSunny.1 mph57%29.78 "Hg19 mi
6:00 PM76 °FSunny.2 mph59%29.78 "Hg19 mi
5:00 PM76 °FPassing clouds.2 mph59%29.79 "Hg16 mi
4:00 PM75 °FScattered clouds.2 mph60%29.80 "Hg16 mi
3:00 PM72 °FScattered clouds.2 mph64%29.82 "Hg16 mi
2:00 PM69 °FScattered clouds.1 mph69%29.84 "Hg16 mi
1:00 PM67 °FPartly sunny.2 mph70%29.86 "Hg14 mi
12:00 PM67 °FOvercast.1 mph73%29.87 "Hg14 mi
11:00 AM66 °FOvercast.2 mph75%29.88 "Hg12 mi
10:00 AM65 °FOvercast.1 mph76%29.87 "Hg12 mi
9:00 AM64 °FPartly sunny.1 mph70%29.88 "Hg11 mi
8:00 AM62 °FPartly sunny.1 mph83%29.88 "Hg9 mi
7:00 AM58 °FPartly sunny.1 mph92%29.90 "Hg11 mi
6:00 AM58 °FScattered clouds.1 mph94%29.90 "Hg9 mi
5:00 AM59 °FClear.1 mph93%29.91 "Hg7 mi
4:00 AM59 °FClear.1 mph91%29.91 "Hg11 mi
Weather by CustomWeather, © 2014

See weather overviewHow to use our weather pages